Wetbulb
74.27 74.62 74.87 75.23 75.66 75.87 74.99 74.00 72.77 72.81 72.06 71.06 71.01 70.98 71.04 70.84 72.00 71.61 71.29 70.89 70.32 70.10 69.91 68.98 68.40 68.71 66.79 66.32 66.11 65.45 64.37 64.01 61.09 63.23 64.32 65.53 66.35 66.41 67.20 68.51 68.99 69.21 68.47
74.41 74.78 74.76 74.94 74.04 73.29 73.06 71.96 71.49 70.13 70.77 70.98 70.95 70.74 71.13 70.79 70.04 68.78 67.56 66.61 67.13 66.69 66.65 66.68 66.07 65.80 66.13 66.22 64.82 64.74 64.06 64.75 62.89 60.39 63.37 63.12 64.04 65.96 66.61 66.46 67.44 67.96 68.13
74.04 74.15 74.06 72.60 70.90 70.55 70.46 70.25 70.38 70.33 70.27 70.81 70.74 70.03 69.53 68.69 68.16 67.87 67.49 67.04 66.83 66.36 66.00 65.84 65.51 65.44 64.66 64.05 64.08 63.09 63.17 63.37 63.26 61.87 61.22 61.33 61.75 63.61 64.30 65.05 66.07 67.99 67.42
73.36 72.50 71.09 70.38 69.94 69.90 70.04 69.82 70.29 70.56 69.59 69.01 68.71 68.42 68.31 67.69 66.81 66.72 66.48 66.30 66.04 65.83 66.06 65.60 64.91 64.02 63.52 63.14 62.59 62.42 61.83 61.13 60.63 60.22 60.12 59.79 60.66 63.79 63.07 61.71 61.53 64.99 65.24
70.75 70.29 69.77 70.00 70.06 69.82 68.79 68.40 68.45 68.04 67.42 67.45 67.09 66.45 66.50 65.88 65.05 65.20 65.60 65.53 65.03 64.31 64.40 63.98 63.67 62.59 61.23 61.28 60.18 59.93 59.81 59.60 59.93 59.57 58.64 58.93 59.18 59.72 62.25 61.67 64.01 65.18 65.38
69.72 68.75 68.91 67.86 67.59 66.90 66.65 66.51 66.17 66.01 65.84 65.77 65.41 65.20 65.34 64.76 59.53 59.97 61.39 63.67 63.34 62.68 61.84 61.98 62.09 61.75 61.64 60.18 60.50 59.73 60.05 60.22 59.26 58.32 57.53 57.01 57.64 59.82 59.32 59.87 61.33 60.11 59.43
66.82 66.28 65.80 65.48 64.33 63.81 63.88 64.12 64.15 64.71 65.41 64.80 64.97 64.98 64.43 62.39 56.70 56.69 57.75 61.83 60.84 61.10 60.85 60.56 60.47 61.41 61.59 60.39 59.23 59.64 60.69 60.58 59.87 58.93 57.47 58.35 59.55 60.03 60.34 60.07 60.18 61.97 61.14
64.34 63.81 63.76 63.59 62.77 63.19 63.35 63.20 63.71 63.97 63.93 63.63 63.62 63.33 62.71 60.53 54.70 54.21 55.17 59.38 58.95 59.16 59.76 60.10 60.08 59.54 60.05 58.04 57.61 57.73 58.63 59.54 60.14 59.06 59.78 60.27 61.57 62.24 61.96 63.01 62.02 61.30 61.29
61.71 61.29 61.52 61.77 61.94 62.08 62.18 62.70 62.89 62.93 62.72 62.47 62.04 60.95 59.09 59.21 52.89 52.62 54.83 57.26 56.96 57.60 58.65 59.34 57.54 56.80 56.76 55.57 55.53 55.79 56.13 57.93 58.10 57.79 57.61 57.35 57.35 57.13 57.77 58.20 57.53 57.14 56.89
59.70 60.23 61.11 61.52 61.54 61.33 61.73 61.89 62.44 62.19 61.60 60.94 60.30 59.61 55.96 57.64 52.70 51.23 52.50 54.87 54.27 54.64 56.74 57.77 56.17 55.69 53.20 51.52 52.82 54.00 52.81 55.73 57.21 56.95 59.35 61.03 60.31 60.09 59.20 62.07 61.27 57.74 56.25
59.40 60.14 60.37 61.21 61.35 61.49 61.93 62.01 61.62 60.97 60.59 59.80 59.14 58.91 57.96 55.66 55.61 50.77 50.04 52.60 52.23 50.87 52.29 52.56 53.78 53.12 49.87 49.84 50.43 52.87 52.87 53.76 56.55 57.36 58.56 59.98 60.65 60.81 60.65 59.48 56.96 55.16 53.10
59.15 59.50 60.03 60.61 60.40 60.58 61.00 60.61 60.46 59.86 58.64 58.11 57.30 56.82 56.59 55.77 51.25 50.77 48.59 48.81 50.11 51.75 52.09 53.03 54.27 50.06 48.00 48.42 49.44 48.94 49.80 52.34 54.76 54.86 56.19 56.69 56.50 56.48 55.03 55.00 55.12 54.90 55.27
58.83 58.94 59.35 59.88 59.06 58.82 58.41 57.94 56.52 57.07 55.71 55.49 54.25 53.30 53.06 53.53 53.88 49.45 48.63 48.86 50.03 52.41 54.42 51.33 49.21 47.35 47.32 47.59 47.33 47.45 48.89 50.35 50.71 50.32 51.01 52.41 53.21 52.52 52.62 53.31 54.01 54.55 55.30
58.36 58.21 58.19 58.08 57.26 56.96 56.23 55.80 54.95 53.86 52.78 52.89 51.84 50.93 50.69 51.67 51.52 49.43 50.10 47.58 49.56 51.80 51.98 50.73 47.33 46.07 45.00 44.73 44.93 44.77 46.42 47.05 47.40 47.94 48.38 46.39 51.86 52.66 51.39 51.44 51.31 52.54 54.30
57.41 57.45 57.57 57.08 56.76 56.24 55.39 53.70 53.49 51.58 48.49 49.19 48.82 48.63 48.15 48.44 47.58 43.04 42.16 45.17 47.77 47.08 47.59 45.90 44.30 43.46 42.21 42.05 42.49 43.27 44.63 46.50 47.24 46.78 47.86 48.55 49.33 48.98 49.96 51.24 50.55 51.96 53.40
56.09 56.09 55.25 54.45 54.24 54.29 53.80 52.14 46.58 46.42 44.06 41.25 41.26 43.20 48.28 43.49 40.98 40.61 40.39 41.33 42.74 44.22 45.14 43.24 42.35 41.70 41.06 40.66 40.37 41.34 43.18 45.22 45.35 45.47 46.70 47.83 47.01 48.15 48.84 49.61 50.79 52.14 52.76
55.66 55.12 53.27 52.73 52.83 52.36 50.78 49.89 48.81 47.36 43.90 42.25 41.01 41.01 40.20 39.27 39.99 40.15 40.76 41.63 43.38 45.41 45.37 42.95 42.16 40.91 40.37 40.30 40.77 41.41 43.40 44.05 45.54 44.82 45.38 45.99 46.52 47.78 48.26 47.66 50.85 51.30 51.53
55.54 50.47 53.60 52.80 52.67 51.84 51.00 50.40 49.93 48.41 47.46 47.73 44.41 42.30 40.72 40.00 40.04 40.41 41.26 44.50 47.74 47.78 44.68 43.51 41.99 41.12 39.25 38.66 40.81 42.20 43.13 43.88 43.39 43.62 44.54 45.20 45.76 46.93 48.04 48.67 49.45 50.63 50.87
55.23 55.20 55.09 53.59 53.09 51.57 51.78 51.36 50.21 49.24 48.04 47.60 48.30 45.67 45.54 41.73 41.17 41.45 42.48 46.22 45.68 46.78 46.02 44.24 43.10 40.11 41.20 41.26 41.36 42.25 42.94 42.38 42.58 42.79 43.52 44.25 45.48 46.83 48.10 49.44 50.94 48.32 49.95
53.09 51.54 53.51 54.65 52.69 51.77 51.93 51.49 51.05 49.46 48.14 47.49 47.59 47.43 47.68 46.93 47.41 47.32 47.70 47.77 45.84 44.89 43.66 42.50 42.47 41.41 40.75 40.42 40.66 41.96 42.22 42.41 43.10 42.93 43.37 44.59 45.86 46.92 48.20 48.81 51.57 49.47 52.45
51.58 51.69 51.75 54.36 54.02 53.29 52.40 51.34 51.23 50.34 48.51 47.73 47.71 45.90 39.25 45.49 45.62 45.81 45.74 45.28 43.48 43.90 42.91 42.45 40.26 39.64 40.91 41.11 40.93 41.03 41.27 41.86 42.20 42.40 42.63 44.48 46.06 46.70 48.74 50.58 52.41 53.67 53.18
51.98 52.42 53.23 53.66 54.31 53.53 52.73 52.10 51.43 50.85 50.22 47.86 47.27 46.06 39.92 45.12 44.64 44.21 43.68 43.46 43.68 44.01 43.80 42.84 41.22 41.34 41.59 40.93 40.45 40.68 40.58 40.15 39.34 39.00 40.82 43.94 46.07 48.34 48.97 50.11 51.80 53.26 54.02
51.90 52.44 52.70 52.76 52.46 49.30 50.57 51.23 50.85 50.78 49.64 47.79 46.39 44.24 43.73 43.37 42.79 42.46 42.32 42.67 42.92 43.00 42.85 42.72 41.83 41.02 41.50 41.44 41.54 40.85 40.01 37.47 35.85 37.22 39.33 42.35 46.78 48.29 49.88 50.30 51.05 52.00 52.82
51.64 51.79 50.68 49.98 50.10 50.22 49.63 48.50 48.47 45.19 47.23 46.50 44.81 43.73 43.41 42.96 42.37 42.20 42.38 42.70 42.82 42.98 43.20 43.18 42.60 41.91 42.06 41.99 41.79 41.91 41.97 36.56 35.67 39.17 38.96 45.28 48.40 49.03 49.95 50.68 51.42 51.45 52.18
51.27 50.48 49.69 49.25 48.50 48.40 46.72 47.92 47.71 47.29 45.93 43.91 43.16 43.23 43.61 44.13 42.90 42.59 42.69 42.73 42.83 42.88 43.11 43.64 43.50 43.58 43.13 42.52 41.80 41.18 37.11 31.63 34.49 33.71 43.14 49.05 49.80 50.41 50.45 50.55 51.23 51.46 51.91
50.50 50.09 49.18 48.71 48.32 47.79 47.90 47.22 46.61 46.51 44.53 42.96 42.84 44.13 44.25 43.75 43.35 42.85 42.78 42.55 42.48 42.66 43.05 43.53 43.66 43.62 43.67 43.30 41.19 35.43 32.75 31.28 34.88 31.82 39.64 49.71 49.77 49.72 49.71 50.13 50.43 50.75 51.53
MSLP
1013.56 1014.04 1014.50 1014.91 1015.32 1015.62 1015.91 1016.30 1016.65 1016.77 1016.98 1017.07 1016.91 1016.86 1016.69 1016.56 1016.57 1016.42 1016.27 1016.11 1015.96 1015.76 1015.55 1015.38 1015.25 1015.16 1014.79 1014.56 1014.24 1013.99 1013.63 1013.37 1012.28 1011.71 1011.67 1011.77 1011.30 1010.91 1010.38 1009.79 1009.37 1008.80 1008.15
1013.41 1013.92 1014.45 1014.94 1015.39 1015.83 1016.10 1016.50 1016.81 1016.81 1016.86 1016.87 1016.77 1016.57 1016.46 1016.50 1016.61 1016.45 1016.16 1015.95 1015.66 1015.53 1015.19 1015.22 1014.97 1014.74 1014.75 1014.47 1014.06 1013.79 1013.36 1013.15 1012.40 1011.37 1011.61 1011.48 1011.34 1010.68 1010.01 1009.61 1008.92 1008.14 1007.55
1013.60 1013.99 1014.45 1015.19 1015.67 1015.99 1016.26 1016.44 1016.71 1016.77 1016.73 1016.68 1016.53 1016.52 1016.46 1016.50 1016.39 1016.21 1016.02 1015.74 1015.61 1015.43 1015.30 1015.05 1014.79 1014.66 1014.44 1014.19 1014.09 1013.50 1012.89 1012.43 1012.12 1011.59 1010.98 1011.25 1010.87 1010.10 1009.02 1008.80 1008.50 1007.76 1007.00
1013.61 1014.18 1014.85 1015.38 1015.76 1016.10 1016.32 1016.51 1016.69 1016.77 1016.78 1016.77 1016.72 1016.68 1016.61 1016.55 1016.29 1016.02 1015.93 1015.92 1015.73 1015.49 1015.20 1014.85 1014.72 1014.57 1014.28 1013.98 1013.59 1013.22 1012.93 1012.71 1012.39 1011.84 1010.96 1010.26 1009.88 1009.01 1008.79 1008.27 1007.56 1007.00 1005.97
1014.07 1014.73 1015.28 1015.73 1016.05 1016.32 1016.60 1016.74 1016.89 1017.04 1017.08 1017.10 1016.99 1016.75 1016.57 1016.31 1016.12 1016.47 1016.16 1015.89 1015.71 1015.35 1014.94 1014.65 1014.46 1014.45 1014.31 1014.02 1013.80 1013.44 1013.26 1012.74 1012.12 1011.41 1010.67 1010.20 1009.53 1008.65 1007.68 1007.39 1007.11 1006.71 1006.08
1014.64 1015.27 1015.76 1016.15 1016.51 1016.77 1017.08 1017.26 1017.24 1017.21 1017.19 1017.07 1016.87 1016.73 1016.56 1016.47 1017.18 1017.09 1016.82 1016.03 1015.51 1014.94 1014.56 1014.46 1014.20 1013.81 1013.36 1013.57 1013.39 1013.27 1012.93 1012.22 1011.58 1011.26 1010.57 1009.81 1009.14 1008.70 1008.28 1007.48 1007.18 1006.40 1005.46
1015.43 1015.99 1016.32 1016.67 1016.99 1017.24 1017.38 1017.40 1017.34 1017.28 1017.19 1017.04 1016.92 1016.86 1016.73 1017.13 1017.58 1017.27 1016.71 1015.81 1015.50 1014.93 1014.52 1014.14 1013.70 1013.31 1013.25 1013.05 1012.91 1012.47 1011.79 1011.42 1011.29 1010.88 1010.11 1009.49 1008.81 1008.31 1007.86 1007.22 1006.52 1005.97 1005.28
1015.92 1016.38 1016.78 1016.99 1017.09 1017.31 1017.43 1017.44 1017.40 1017.26 1017.21 1017.09 1017.14 1017.27 1017.19 1017.33 1017.68 1017.28 1016.68 1015.92 1015.48 1015.07 1014.58 1014.25 1013.93 1013.75 1013.48 1013.23 1012.50 1011.79 1011.26 1010.93 1010.49 1010.25 1009.77 1008.96 1008.30 1007.65 1007.32 1006.82 1006.19 1005.44 1004.44
1016.42 1016.88 1017.13 1017.30 1017.34 1017.52 1017.63 1017.60 1017.57 1017.38 1017.33 1017.32 1017.40 1017.47 1017.44 1017.28 1017.61 1017.26 1016.60 1015.79 1015.49 1015.11 1014.66 1014.31 1014.15 1013.63 1013.15 1012.95 1012.44 1011.83 1011.11 1010.41 1009.79 1009.38 1009.15 1008.63 1007.95 1007.35 1006.97 1006.71 1005.61 1004.59 1003.24
1017.04 1017.42 1017.51 1017.60 1017.62 1017.58 1017.73 1017.80 1017.88 1017.64 1017.57 1017.41 1017.43 1017.59 1017.62 1017.38 1017.39 1017.24 1017.03 1016.40 1015.85 1015.32 1014.65 1014.09 1013.92 1013.81 1013.51 1012.63 1012.11 1011.66 1011.09 1010.29 1009.51 1008.74 1008.21 1007.52 1007.05 1006.51 1005.88 1005.65 1004.83 1004.22 1003.05
1017.59 1017.79 1017.69 1017.72 1017.79 1017.96 1017.98 1018.00 1017.89 1017.78 1017.69 1017.58 1017.50 1017.55 1017.58 1017.81 1017.66 1017.59 1017.54 1017.06 1016.53 1015.95 1015.17 1014.65 1014.31 1014.01 1013.67 1013.07 1012.31 1012.06 1011.34 1010.68 1009.55 1008.89 1007.92 1006.92 1006.25 1005.72 1005.27 1005.24 1004.73 1004.08 1002.56
1017.51 1017.61 1017.83 1018.13 1018.16 1018.23 1018.25 1018.30 1018.32 1018.27 1018.16 1017.96 1017.79 1017.49 1017.41 1017.73 1017.77 1017.70 1017.71 1017.49 1017.00 1016.19 1015.42 1014.92 1014.53 1014.31 1014.00 1013.49 1012.97 1012.41 1011.48 1010.51 1009.74 1008.86 1008.08 1007.17 1006.66 1006.27 1005.88 1004.99 1003.73 1002.82 1001.53
1017.49 1017.72 1018.07 1018.51 1018.75 1018.86 1018.96 1018.87 1018.94 1018.76 1018.64 1018.37 1018.17 1018.02 1017.84 1017.87 1017.72 1017.95 1017.82 1017.45 1016.86 1016.23 1015.60 1015.56 1015.20 1014.79 1014.21 1013.64 1013.33 1012.66 1011.53 1010.96 1010.17 1009.42 1008.81 1008.18 1007.40 1006.76 1006.12 1004.55 1002.86 1001.60 1000.13
1017.94 1018.16 1018.85 1018.99 1019.23 1019.40 1019.20 1019.18 1019.23 1019.48 1019.42 1019.21 1019.04 1018.84 1018.53 1018.13 1018.08 1018.42 1017.99 1017.61 1017.10 1016.38 1015.89 1015.65 1015.63 1015.31 1014.64 1014.42 1013.63 1012.97 1012.22 1011.41 1010.67 1009.96 1009.29 1009.04 1007.51 1006.58 1005.67 1004.75 1003.00 1000.83 999.04
1018.02 1018.53 1018.88 1019.07 1019.23 1019.32 1019.76 1020.05 1019.96 1020.70 1020.74 1020.46 1020.16 1019.81 1019.47 1019.07 1019.21 1019.31 1018.80 1018.19 1017.67 1017.17 1016.58 1016.05 1015.80 1015.36 1014.91 1014.50 1013.88 1013.16 1012.26 1011.28 1010.50 1010.13 1009.37 1008.68 1007.50 1006.74 1005.63 1004.46 1002.96 1000.94 999.21
1018.25 1018.69 1019.01 1019.06 1019.23 1019.53 1019.76 1020.06 1020.96 1021.03 1021.19 1021.19 1021.02 1020.67 1020.05 1020.25 1019.98 1019.35 1018.81 1018.31 1017.82 1017.38 1016.92 1016.67 1016.67 1016.34 1015.66 1015.16 1014.24 1013.35 1012.40 1011.50 1011.01 1010.38 1009.60 1008.83 1007.91 1007.11 1005.94 1004.31 1003.13 1001.45 999.53
1018.58 1018.79 1019.16 1019.24 1019.29 1019.63 1019.87 1020.14 1020.39 1020.73 1020.86 1021.01 1020.86 1020.69 1020.67 1020.36 1020.12 1019.75 1019.04 1018.54 1018.25 1017.74 1017.48 1017.11 1017.07 1016.68 1016.22 1015.46 1014.62 1013.84 1012.67 1012.08 1011.55 1010.66 1009.88 1009.00 1008.21 1007.24 1006.22 1004.78 1003.39 1001.82 999.76
1018.90 1019.39 1019.07 1019.05 1019.36 1019.86 1019.99 1020.18 1020.12 1020.16 1020.03 1020.28 1020.53 1020.80 1020.59 1020.35 1020.15 1019.85 1019.23 1018.47 1018.26 1017.92 1017.81 1017.59 1017.38 1016.94 1016.38 1015.83 1015.02 1014.18 1013.32 1012.42 1011.75 1010.99 1010.14 1009.36 1008.58 1007.68 1006.39 1005.10 1003.95 1002.54 1000.82
1018.82 1019.09 1019.07 1019.17 1019.51 1019.99 1019.94 1019.96 1019.99 1020.04 1019.95 1020.11 1020.20 1020.11 1020.14 1020.19 1020.02 1019.84 1019.46 1019.00 1018.56 1018.08 1017.78 1017.73 1017.70 1017.28 1016.49 1016.13 1015.54 1014.74 1013.95 1013.07 1012.38 1011.48 1010.58 1009.79 1008.83 1007.84 1006.52 1005.47 1004.19 1003.06 1001.65
1018.85 1019.14 1018.92 1019.11 1019.50 1019.58 1019.74 1019.78 1019.84 1019.83 1019.92 1020.17 1020.24 1020.26 1020.22 1019.72 1019.31 1019.24 1019.17 1019.03 1018.81 1018.45 1018.18 1018.07 1017.58 1017.42 1017.09 1016.66 1015.94 1015.10 1014.21 1013.40 1012.55 1011.84 1011.07 1010.16 1009.05 1007.95 1006.68 1005.52 1004.49 1003.57 1002.30
1018.38 1018.32 1018.61 1018.71 1018.94 1019.35 1019.61 1019.59 1019.70 1019.92 1020.00 1020.21 1020.31 1020.88 1021.28 1020.27 1019.82 1019.68 1019.52 1019.24 1019.50 1018.98 1018.60 1018.37 1018.31 1018.00 1017.38 1016.88 1016.36 1015.66 1014.86 1014.07 1013.43 1012.70 1011.84 1010.60 1009.29 1007.90 1006.81 1005.71 1004.65 1003.58 1002.84
1017.96 1017.94 1018.29 1018.20 1018.58 1019.25 1019.71 1019.56 1019.52 1019.65 1019.95 1020.27 1020.49 1020.92 1021.31 1020.58 1020.31 1020.03 1019.89 1019.67 1019.54 1019.31 1019.11 1018.92 1018.60 1018.17 1017.72 1017.40 1016.94 1016.30 1015.61 1015.09 1014.57 1013.95 1012.75 1011.20 1009.73 1008.11 1007.05 1005.97 1004.83 1003.75 1002.93
1017.46 1017.74 1018.06 1018.08 1018.54 1019.47 1019.86 1019.60 1019.55 1019.74 1020.08 1020.50 1020.70 1021.17 1020.94 1020.85 1020.67 1020.42 1020.15 1020.06 1019.92 1019.65 1019.49 1019.16 1018.90 1018.63 1018.40 1018.01 1017.55 1017.09 1016.44 1016.25 1015.85 1014.91 1013.51 1011.94 1009.97 1008.60 1007.33 1006.22 1005.14 1004.17 1003.34
1017.48 1017.68 1017.91 1018.04 1018.66 1019.18 1019.42 1019.58 1019.74 1019.98 1020.24 1020.69 1021.23 1021.28 1021.82 1021.48 1020.94 1020.81 1020.57 1020.35 1020.15 1019.95 1019.76 1019.44 1019.33 1019.09 1018.70 1018.33 1017.85 1017.31 1016.72 1016.99 1016.27 1014.81 1014.07 1011.94 1010.16 1009.00 1007.84 1006.61 1005.60 1004.76 1003.97
1017.74 1017.79 1017.98 1018.21 1018.83 1019.27 1019.47 1019.53 1019.67 1019.97 1019.98 1020.47 1020.90 1021.35 1021.46 1021.67 1021.28 1020.93 1020.83 1020.59 1020.30 1020.04 1019.90 1019.71 1019.52 1019.14 1018.76 1018.38 1018.09 1017.66 1017.27 1016.79 1016.09 1015.26 1013.48 1011.53 1010.45 1009.39 1008.22 1007.10 1006.32 1005.39 1004.73
1017.89 1017.89 1017.87 1018.42 1018.87 1019.26 1019.37 1019.54 1019.62 1019.95 1020.17 1020.74 1020.71 1021.43 1021.44 1021.42 1021.48 1021.14 1020.94 1020.75 1020.43 1020.23 1020.13 1019.86 1019.64 1019.28 1018.74 1018.29 1018.29 1018.02 1017.33 1016.64 1015.77 1014.78 1013.55 1011.48 1010.69 1009.80 1008.94 1007.84 1007.15 1006.29 1005.56
Wind_Speed
11 10 10 9 8 7 5 4 3 2 2 5 6 6 7 8 7 5 5 6 7 8 8 9 10 10 9 9 9 10 11 12 15 12 11 12 15 16 15 15 14 14 13
8 8 7 6 3 3 2 1 1 4 4 6 6 6 6 5 5 5 6 4 8 9 10 10 11 8 10 10 9 12 12 14 14 17 10 10 12 16 15 13 14 12 13
6 5 5 5 4 3 2 3 4 5 5 5 5 4 4 6 7 7 8 8 10 10 10 10 11 11 11 10 12 13 12 11 13 13 13 8 10 13 14 10 11 14 13
5 5 5 5 5 4 4 5 5 5 5 5 5 5 6 7 8 8 8 9 9 9 9 10 11 11 12 13 13 14 12 10 10 11 11 11 9 13 10 11 10 11 12
8 8 7 7 7 7 7 7 6 5 4 4 5 5 6 6 6 9 8 8 8 9 10 10 11 13 17 14 9 10 10 9 9 10 9 9 10 8 14 7 10 9 11
10 10 9 9 9 8 7 5 4 4 4 4 5 6 7 5 11 9 9 8 9 10 11 11 12 15 12 14 12 15 15 12 9 9 9 10 10 9 6 8 9 10 11
11 10 9 8 7 6 5 4 5 5 5 6 6 7 7 8 11 10 13 8 10 11 12 12 12 11 14 14 15 16 14 12 11 11 12 11 12 11 9 11 11 11 11
11 9 7 5 5 5 5 5 5 5 6 6 6 7 7 7 13 12 16 10 10 12 13 13 14 15 14 15 15 14 13 12 12 9 10 12 12 11 13 12 14 14 13
9 7 6 5 6 5 5 6 6 6 6 6 6 7 9 8 11 12 15 12 12 14 13 15 15 14 17 20 13 11 12 13 8 11 11 17 19 19 16 9 11 13 15
8 6 6 6 6 7 6 6 5 5 6 6 7 7 7 10 9 11 15 10 12 11 14 15 16 13 20 22 11 8 8 10 12 13 13 12 10 12 15 10 11 14 17
7 6 7 8 7 7 6 6 6 7 7 8 8 7 8 8 10 9 15 12 10 9 9 8 8 14 17 16 14 8 6 12 11 10 11 11 10 11 10 13 14 13 13
7 8 9 8 6 6 7 7 8 8 7 7 8 8 8 10 8 12 16 14 17 9 8 7 8 11 12 14 12 16 15 11 8 8 10 10 11 10 10 12 18 16 15
9 9 9 8 7 7 7 7 4 5 6 7 8 9 9 9 9 12 14 17 15 10 8 11 15 14 13 10 16 18 14 9 8 8 9 10 11 9 13 14 18 18 18
9 9 6 6 5 6 5 5 5 6 6 7 8 9 9 9 10 12 11 10 12 11 13 11 13 13 13 12 10 10 7 8 9 9 9 9 11 10 11 11 15 16 14
9 7 5 4 3 4 5 6 5 6 6 7 7 7 9 10 11 12 10 7 6 8 8 7 9 9 10 9 8 7 8 9 9 9 10 11 11 11 12 12 12 15 13
8 5 4 4 4 4 3 5 9 8 4 4 4 6 6 3 12 15 13 9 11 10 7 7 8 9 9 9 10 11 11 12 10 10 10 11 12 12 12 14 12 13 15
7 7 5 3 4 4 4 4 4 5 7 6 7 8 8 9 11 12 13 11 8 8 7 6 7 8 8 9 10 10 11 10 12 10 11 11 12 12 14 12 13 13 15
5 3 4 4 4 3 3 3 3 4 6 6 6 5 8 10 10 11 13 7 7 6 6 7 7 8 8 8 10 11 11 11 11 11 11 11 11 12 12 12 12 14 15
5 5 4 4 3 2 2 2 3 4 5 6 6 4 7 8 6 8 9 6 6 7 9 10 8 7 9 10 10 10 11 11 11 12 11 12 12 12 13 12 13 19 19
5 3 3 4 4 4 2 0 1 3 5 5 6 8 9 8 7 8 7 8 8 9 9 9 9 9 10 10 10 11 11 12 12 11 12 12 12 12 12 12 12 12 12
5 5 4 6 5 4 3 3 1 2 4 5 5 7 9 8 7 7 7 7 7 8 9 9 8 9 9 10 10 11 11 11 12 12 12 12 13 13 13 13 13 12 10
5 4 5 5 4 4 3 3 2 1 2 4 5 5 6 5 5 5 6 7 7 7 7 8 8 9 10 10 11 11 12 12 12 12 13 13 13 13 13 13 13 13 11
5 5 4 4 3 3 4 3 2 2 2 3 4 4 4 5 5 6 6 7 7 7 7 8 8 9 9 10 10 10 11 11 11 11 13 13 13 13 13 13 14 13 13
5 4 4 5 3 2 3 3 4 3 3 3 3 3 3 4 4 6 6 6 7 7 8 8 8 11 11 10 10 10 10 11 10 11 14 12 13 14 13 13 14 16 13
5 5 5 4 4 3 4 4 4 4 4 3 4 3 3 2 4 5 6 6 6 7 8 8 9 11 13 15 15 16 17 14 13 15 10 12 13 16 14 12 14 13 15
5 5 5 4 4 4 3 4 4 4 4 4 4 2 2 2 3 4 5 6 6 7 8 7 11 14 16 13 16 17 14 14 14 16 13 11 12 12 13 14 18 13 14
Wind_Direction
217 220 229 236 244 252 237 182 170 167 280 303 307 311 310 312 305 293 298 300 293 295 290 293 296 302 301 303 304 298 292 289 288 286 298 297 297 293 292 290 288 287 282
215 211 222 227 200 199 163 56 351 321 315 310 309 317 311 307 303 304 300 301 300 303 315 310 311 314 309 305 300 299 292 292 291 294 294 297 285 291 288 286 283 285 285
186 196 178 143 135 105 45 26 334 331 336 348 353 341 335 318 311 314 315 320 319 317 313 312 311 312 307 308 301 300 298 296 293 295 297 291 281 288 288 277 282 285 277
130 121 113 95 79 67 58 57 44 36 32 23 3 339 329 324 325 334 328 315 311 311 310 312 312 307 305 308 304 302 306 302 293 288 289 287 276 285 274 276 273 277 283
105 92 86 88 81 75 67 60 53 38 14 354 339 338 335 325 2 341 324 317 316 313 314 316 313 318 304 294 302 302 298 293 290 290 294 298 297 282 279 284 291 284 286
99 92 87 84 75 66 57 43 36 22 11 350 354 347 350 2 10 9 346 319 323 320 322 321 319 306 307 309 282 297 286 290 303 308 305 298 299 314 308 298 296 296 298
95 87 80 74 71 61 54 38 26 16 9 14 14 7 12 44 16 9 354 339 328 327 323 325 326 332 320 328 316 304 302 298 293 293 292 294 297 294 291 295 292 291 294
95 89 84 80 68 54 46 38 38 29 26 26 23 20 13 48 13 4 344 352 334 330 329 331 331 326 331 331 329 321 313 313 301 300 285 292 289 299 298 299 295 287 281
95 86 74 62 61 52 39 43 39 33 27 22 29 22 15 17 15 4 354 349 345 333 332 330 331 325 334 326 315 304 303 304 282 259 273 274 275 275 264 287 285 292 291
86 84 81 72 62 55 42 43 33 25 33 18 20 21 28 6 21 2 10 348 342 334 331 332 341 344 334 326 304 296 299 307 325 321 317 305 287 292 279 277 301 300 292
91 83 66 54 51 45 46 36 26 25 20 13 1 357 360 6 356 358 5 344 343 317 318 323 323 351 347 355 21 332 330 312 323 318 314 309 317 314 328 328 308 296 289
88 71 61 53 44 45 36 29 23 10 6 351 342 334 353 357 9 6 347 333 331 320 312 318 335 348 356 2 0 345 350 348 341 335 326 328 328 328 310 300 298 292 280
91 81 74 71 63 52 41 34 20 6 347 349 353 349 350 352 355 11 337 343 339 336 357 21 11 5 0 4 354 351 0 351 342 341 332 326 319 310 300 292 302 299 296
103 94 85 77 70 51 40 29 22 22 356 2 360 348 344 351 2 351 346 344 351 5 4 21 12 8 19 356 349 351 340 336 338 326 323 317 312 326 311 309 308 315 310
104 105 109 98 71 76 58 22 25 61 31 351 3 343 350 355 356 327 332 344 4 9 8 19 6 2 360 349 343 339 334 341 342 338 332 327 328 326 319 314 310 314 322
115 124 99 97 86 74 66 102 85 91 68 61 43 19 2 3 331 339 344 348 10 0 26 21 2 352 349 341 340 347 342 344 346 333 335 330 331 329 321 317 319 323 326
133 129 121 127 90 79 71 57 51 130 122 77 30 10 4 339 338 341 353 349 8 8 19 16 356 346 341 331 346 335 343 343 334 340 337 332 334 327 330 321 325 325 327
136 95 149 113 95 103 91 78 51 33 25 23 80 7 8 357 341 351 350 357 6 24 10 355 348 343 331 337 338 345 341 340 346 341 337 338 337 332 328 328 330 331 332
181 183 162 127 130 125 126 88 50 34 26 14 351 0 25 345 338 12 357 18 359 3 0 357 351 339 346 348 344 342 343 345 341 340 340 337 336 336 332 333 335 333 332
192 151 186 175 169 186 183 177 54 36 20 5 354 359 354 331 358 8 16 14 9 360 4 354 1 357 353 346 344 345 346 347 348 345 341 336 336 336 335 335 341 332 334
198 161 207 197 194 210 222 227 156 30 17 359 2 29 344 325 1 5 6 16 8 1 1 3 3 353 354 352 351 345 347 346 347 344 337 335 337 339 342 339 345 348 347
182 165 181 192 177 205 233 225 179 141 38 7 9 19 331 2 16 18 22 21 15 9 8 358 359 356 359 355 350 348 347 347 343 339 331 334 336 339 342 346 347 352 357
161 163 160 141 154 143 204 192 163 131 76 43 17 8 15 27 30 29 27 22 14 12 12 7 3 0 1 354 353 346 344 342 330 322 327 326 332 348 342 346 353 356 357
161 163 153 137 146 168 167 149 122 90 85 53 56 61 22 30 41 43 28 25 22 21 16 15 12 7 1 357 356 348 351 341 323 325 327 319 337 343 348 350 354 360 0
173 168 163 147 165 176 154 141 129 133 114 116 110 101 82 32 37 40 30 24 22 19 20 13 13 6 8 3 4 353 344 326 323 323 320 332 347 357 354 0 359 2 6
178 176 158 160 173 175 166 159 150 145 123 122 119 111 81 48 27 34 27 23 20 21 13 13 8 6 8 7 3 335 323 331 335 324 313 357 3 10 357 10 9 9 11